User: anonymous   Login
Location: Albany
(35.0000°S, 118.0000°E)
Time: 04:38:37
(UTC-04:00)
Language:

CZ-4B R/B - Orbit

View from above orbital plane
View from above orbital plane
View from above satellite
View from above satellite

Ground track
Ground track

The orbit data is extracted from the following two-line orbital elements,

1 33410U 08053C   14295.48443162  .00004378  00000-0  34941-3 0  9648
2 33410 097.6013 268.6945 0128433 199.2675 160.3666 14.94486299325856
Epoch (UTC): 22 October 2014 11:37:34
Eccentricity: 0.0128433
inclination: 97.6013°
perigee height: 494 km
apogee height: 673 km
right ascension of ascending node: 268.6945°
argument of perigee: 199.2675°
revolutions per day: 14.94486299
mean anomaly at epoch: 160.3666°
orbit number at epoch: 32585

The dashed part of the orbit path shows where the satellite is in the earth's shadow,  

DLR